"Time","Temp","Dewpoint","Humidity","Pressure","Direction","Speed","Gust","Precip","PrecipRate"
"00:04:57","70.7","69.8","97","29.93","259","0.3","1.2","0.00","0.00"
"00:09:56","70.9","70","97","29.93","259","0.4","2.3","0.00","0.00"
"00:14:59","70.9","70","97","29.93","259","0","0","0.00","0.00"
"00:19:57","70.9","70","97","29.93","259","0","0","0.00","0.00"
"00:24:59","70.9","70","97","29.93","259","0","0","0.00","0.00"
"00:29:56","70.9","70","97","29.93","259","0","0","0.00","0.00"
"00:34:58","70.9","70","97","29.93","259","0","0","0.00","0.00"
"00:39:57","70.9","70","97","29.93","259","0","0","0.00","0.00"
"00:44:59","70.9","70","97","29.93","259","0","0","0.00","0.00"
"00:49:57","70.9","70.1","97.1","29.93","259","0","0","0.00","0.00"
"00:54:58","71.1","70.5","98","29.93","259","0","0","0.00","0.00"
"00:59:56","71.3","70.7","98","29.93","259","0","0","0.00","0.00"
"01:09:59","71.2","70.6","97.8","29.92","259","0","0","0.00","0.00"
"01:14:58","71.2","70.3","97","29.92","259","0","0","0.00","0.00"
"01:19:59","71.1","70.2","97","29.92","259","0","0","0.00","0.00"
"01:24:57","70.9","70","97","29.92","259","0","0","0.00","0.00"
"01:29:58","70.8","69.9","97","29.92","259","0","0","0.00","0.00"
"01:34:56","70.6","69.7","97","29.92","259","0","0","0.00","0.00"
"01:39:56","70.5","69.6","97","29.92","259","0","0","0.00","0.00"
"01:44:57","70.4","69.5","97","29.92","259","0","0","0.00","0.00"
"01:49:59","70.4","69.8","98","29.92","259","0","0","0.00","0.00"
"01:54:57","70.4","69.8","98","29.92","259","0","0","0.00","0.00"
"01:59:58","70.4","69.5","97.2","29.92","259","0","0","0.00","0.00"
"02:04:59","70.3","69.4","97","29.92","259","0","0","0.00","0.00"
"02:09:57","70.2","69.3","97","29.92","259","0","0","0.00","0.00"
"02:14:57","70.1","69.2","97","29.92","259","0","0","0.00","0.00"
"02:19:58","70.1","69.2","97.2","29.92","259","0","0","0.00","0.00"
"02:24:56","70.1","69.4","97.7","29.92","259","0","0","0.00","0.00"
"02:29:58","70","69.3","97.7","29.92","259","0","0","0.00","0.00"
"02:34:59","69.9","69.1","97.4","29.91","259","0","0","0.00","0.00"
"02:39:59","69.8","69.2","98","29.91","259","0","0","0.00","0.00"
"02:44:56","69.8","69.2","98","29.91","259","0","0","0.00","0.00"
"02:49:58","69.7","69.1","97.9","29.91","259","0","0","0.00","0.00"
"02:54:56","69.6","68.7","97","29.91","259","0","0","0.00","0.00"
"02:59:58","69.5","68.6","97","29.91","259","0","0","0.00","0.00"
"03:04:56","69.5","68.6","97.2","29.91","259","0","0","0.00","0.00"
"03:09:58","69.4","68.6","97.3","29.91","259","0","0","0.00","0.00"
"03:14:57","69.3","68.7","97.8","29.92","259","0","0","0.00","0.00"
"03:19:58","69.2","68.6","97.8","29.92","259","0","0","0.00","0.00"
"03:24:56","69.3","68.7","98","29.92","259","0","0","0.00","0.00"
"03:29:57","69.3","68.7","98","29.92","259","0","0","0.00","0.00"
"03:34:59","69.2","68.6","98","29.92","259","0","0","0.00","0.00"
"03:39:58","69.2","68.6","98","29.92","259","0","0","0.00","0.00"
"03:44:56","69.1","68.5","98","29.92","259","0","0","0.00","0.00"
"03:49:57","69.1","68.5","98","29.92","259","0","0","0.01","0.01"
"03:54:59","69","68.2","97.1","29.92","259","0","0","0.01","0.01"
"03:59:56","68.9","68","97","29.92","259","0","0","0.01","0.01"
"04:04:57","68.8","67.9","97","29.92","259","0","0","0.01","0.01"
"04:09:59","68.8","68","97.3","29.92","259","0","0","0.01","0.01"
"04:14:58","68.7","68.1","98","29.92","259","0","0","0.01","0.01"
"04:19:59","68.7","68.1","98","29.91","259","0","0","0.01","0.01"
"04:24:57","68.7","68.1","98","29.91","259","0","0","0.01","0.01"
"04:29:59","68.7","68.1","98","29.92","259","0","0","0.01","0.01"
"04:34:56","68.7","68.1","98","29.92","259","0","0","0.01","0.01"
"04:39:56","68.7","68.1","98","29.92","259","0","0","0.01","0.01"
"04:44:58","68.7","68.1","98","29.92","259","0","0","0.01","0.01"
"04:49:59","68.8","68.2","98","29.92","259","0","0","0.01","0.01"
"04:54:57","68.8","68.2","98","29.92","259","0","0","0.01","0.00"
"04:59:58","68.8","68.2","98","29.92","259","0","0","0.01","0.00"
"05:04:59","68.8","68.2","98","29.92","259","0","0","0.01","0.00"
"05:09:57","68.8","68.2","98","29.92","259","0","0","0.01","0.00"
"05:14:57","68.9","68.3","98","29.92","259","0","0","0.01","0.00"
"05:19:59","69","68.4","98","29.92","259","0","0","0.01","0.00"
"05:24:56","69.1","68.5","98","29.92","259","0","0","0.01","0.00"
"05:29:58","69.1","68.5","98","29.92","259","0","0","0.01","0.00"
"05:34:59","69.1","68.5","98","29.92","259","0","0","0.01","0.00"
"05:39:59","69","68.4","98","29.92","259","0","0","0.01","0.00"
"05:44:57","69.1","68.5","98","29.92","259","0","0","0.01","0.00"
"05:49:58","69.2","68.6","98","29.92","259","0","0","0.01","0.00"
"05:54:56","69.2","68.6","98","29.92","259","0","0","0.01","0.00"
"05:59:58","69.2","68.6","98","29.93","259","0","0","0.01","0.00"
"06:04:59","69.3","68.7","98","29.93","259","0","0","0.01","0.00"
"06:09:58","69.2","68.6","98","29.93","259","0","0","0.01","0.00"
"06:14:57","69.3","68.7","98","29.93","259","0","0","0.01","0.00"
"06:19:59","69.3","68.7","98","29.93","259","0","0","0.01","0.00"
"06:24:57","69.4","68.8","98","29.93","259","0","0","0.01","0.00"
"06:29:59","69.5","68.9","98","29.93","259","0","0","0.01","0.00"
"06:34:57","69.6","69","98","29.93","259","0","0","0.01","0.00"
"06:39:56","69.7","69.1","98.1","29.93","259","0","0","0.01","0.00"
"06:44:58","69.8","69.5","98.8","29.93","259","0","0","0.01","0.00"
"06:49:59","70","69.7","99","29.93","259","0","0","0.01","0.00"
"06:54:56","70.1","69.6","98.3","29.93","259","0","0","0.01","0.00"
"06:59:58","70.1","69.5","98","29.94","134","0","0","0.01","0.00"
"07:04:58","70.2","69.6","98","29.94","134","0","0","0.01","0.00"
"07:09:56","70.4","69.8","98.3","29.94","134","0","1.2","0.01","0.00"
"07:14:59","70.5","70.2","98.8","29.95","134","0","1.2","0.01","0.00"
"07:19:56","70.7","70.4","99","29.95","134","0","1.2","0.01","0.00"
"07:24:58","70.9","70.6","99","29.95","134","0","0","0.01","0.00"
"07:29:59","71","70.7","99","29.95","134","0","0","0.01","0.00"
"07:34:56","71.2","70.9","99","29.95","134","0","0","0.01","0.00"
"07:39:59","71.4","71.1","99","29.95","134","0","0","0.01","0.00"
"07:44:57","71.5","71.2","99","29.95","134","0","0","0.01","0.00"
"07:49:58","71.7","71.4","99","29.94","134","0","0","0.01","0.00"
"07:54:56","71.7","71.2","98.3","29.94","134","0","0","0.01","0.00"
"07:59:58","71.7","71.1","98","29.94","134","0","0","0.01","0.00"
"08:04:59","71.7","71.1","98.1","29.94","134","0","0","0.01","0.00"
"08:09:57","71.8","71.4","98.7","29.94","134","0","0","0.01","0.00"
"08:14:56","71.8","71.5","99","29.95","134","0","0","0.01","0.00"
"08:19:57","71.9","71.6","99","29.95","134","0","0","0.01","0.00"
"08:24:58","72.1","71.8","99","29.95","134","0","0","0.01","0.00"
"08:29:56","72.2","71.9","99","29.95","134","0","0","0.01","0.00"
"08:34:57","72.4","72.1","99","29.95","134","0.1","1.2","0.01","0.00"
"08:39:56","72.6","72.3","99","29.95","134","0","0","0.01","0.00"
"08:44:59","72.8","72.5","99","29.95","134","0","1.2","0.01","0.00"
"08:49:56","73","72.7","99","29.95","132","0.1","1.2","0.01","0.00"
"08:54:57","73.4","73.1","99","29.95","133","0","1.2","0.01","0.00"
"08:59:58","73.6","73.3","99","29.95","132","0.5","2.3","0.01","0.00"
"09:04:59","73.7","73.4","99","29.95","133","0.1","1.2","0.01","0.00"
"09:09:56","73.7","73.4","98.8","29.95","132","0.3","1.2","0.01","0.00"
"09:14:56","74","73.7","99","29.95","133","0.2","1.2","0.01","0.00"
"09:19:57","74.1","73.8","99","29.95","133","0.1","1.2","0.01","0.00"
"09:24:58","74.3","74","98.8","29.95","132","0.8","2.3","0.01","0.00"
"09:29:56","74.4","73.9","98.4","29.96","132","0.7","3.5","0.01","0.00"
"09:34:57","74.4","73.8","98","29.96","132","1.1","3.5","0.01","0.00"
"09:39:56","74.3","73.7","98","29.96","132","1.2","3.5","0.01","0.00"
"09:44:57","74.4","73.8","98","29.97","132","1.3","3.5","0.01","0.00"
"09:49:59","74.6","74","98","29.97","133","0.6","2.3","0.01","0.00"
"09:54:56","74.7","74","97.5","29.97","133","0.9","3.5","0.01","0.00"
"09:59:57","74.8","73.9","97","29.97","133","1.5","3.5","0.01","0.00"
"10:04:58","75","74.1","97","29.96","133","1.3","3.5","0.01","0.00"
"10:09:56","75.2","74.3","96.8","29.96","133","1.3","3.5","0.01","0.00"
"10:14:59","75.5","74.3","96","29.97","133","0.5","2.3","0.01","0.00"
"10:19:56","75.8","74.9","96.8","29.97","133","0.4","2.3","0.01","0.00"
"10:24:57","76.2","75","96","29.97","133","0.6","2.3","0.01","0.00"
"10:29:59","76.6","75.3","95.8","29.97","133","0.4","2.3","0.01","0.00"
"10:34:56","77","75.5","95.1","29.97","131","1.4","3.5","0.01","0.00"
"10:39:59","77.3","75.5","94.1","29.97","131","1.2","3.5","0.01","0.00"
"10:44:57","77.8","75.9","93.8","29.97","117","1","3.5","0.01","0.00"
"10:49:58","78.4","76.2","93.1","29.97","119","1.1","3.5","0.01","0.00"
"10:54:56","78.7","75.9","91.4","29.97","180","0.7","3.5","0.01","0.00"
"10:59:58","78.9","75.6","89.7","29.97","209","0.9","3.5","0.01","0.00"
"11:04:56","79.1","75.7","89.3","29.97","209","0.6","3","0.01","0.00"
"11:09:59","79.3","75.7","88.7","29.97","209","0.5","3.5","0.01","0.00"
"11:14:59","79.5","75.5","87.7","29.97","209","0.4","2.3","0.01","0.00"
"11:19:58","79.8","76","88.1","29.97","209","0.7","3","0.01","0.00"
"11:24:56","80.2","76.1","87.4","29.97","209","1.5","3.5","0.01","0.00"
"11:29:59","80.4","75.8","86.2","29.97","209","1","3.5","0.01","0.00"
"11:34:58","80.5","76.2","86.9","29.97","209","0.8","3.5","0.01","0.00"
"11:39:58","80.6","76","85.9","29.97","209","0.6","2.3","0.01","0.00"
"11:44:56","80.7","76.2","86.4","29.97","209","0.5","2.3","0.01","0.00"
"11:49:59","80.7","76.2","86.2","29.97","209","0.8","2.3","0.01","0.00"
"11:54:58","80.7","76.4","86.7","29.97","285","0.7","3.5","0.01","0.00"
"11:59:56","80.7","76.6","87.2","29.98","330","0.8","3.5","0.01","0.00"
"12:04:58","80.5","76.5","87.7","29.98","327","1.3","4","0.01","0.00"
"12:09:58","80.3","76.4","88","29.98","326","1.4","4","0.01","0.00"
"12:14:58","80.1","76.2","88","29.98","327","1.9","4","0.01","0.00"
"12:19:56","79.9","76.2","88.4","29.97","327","1.2","4","0.01","0.00"
"12:24:59","79.8","76.3","89","29.97","327","0.8","3.5","0.01","0.00"
"12:29:57","79.7","76.4","89.6","29.98","327","1.1","3.5","0.01","0.00"
"12:34:56","79.6","76.4","90","29.98","324","0.9","5","0.01","0.00"
"12:39:57","79.4","76.3","90.3","29.98","203","1.1","3.5","0.01","0.00"
"12:44:59","79.3","76.3","90.6","29.98","205","1.3","3.5","0.01","0.00"
"12:49:58","79.3","76.6","91.4","29.98","205","0.9","3.5","0.01","0.00"
"12:54:56","79.3","76.7","91.6","29.98","235","1.2","4","0.02","0.01"
"12:59:59","78.9","76","90.9","29.98","323","2.2","5","0.02","0.01"
"13:04:59","78.3","75.4","90.9","29.98","339","1.4","4.6","0.02","0.01"
"13:09:57","77.9","75.3","91.8","29.98","317","1.3","4","0.02","0.01"
"13:14:56","77.5","74.9","91.8","29.98","344","2","6","0.02","0.01"
"13:19:58","77.3","74.9","92.3","29.97","10","1","4.6","0.02","0.01"
"13:24:59","77.3","75.1","92.9","29.97","10","0.8","2.3","0.02","0.01"
"13:29:57","77.4","75.3","93.3","29.97","10","1.6","5","0.02","0.01"
"13:34:58","77.5","75.2","92.7","29.96","11","1.2","4.6","0.02","0.01"
"13:39:57","77.6","75.4","93","29.96","5","1.7","5","0.02","0.01"
"13:44:58","77.5","75","92","29.96","355","2","4.6","0.02","0.01"
"13:49:56","77.5","75.1","92.3","29.95","355","0.5","3.5","0.02","0.01"
"13:54:57","77.5","75.1","92.5","29.95","355","1.1","3.5","0.02","0.01"
"13:59:58","77.6","75.3","92.9","29.95","355","0.7","3.5","0.02","0.00"
"14:04:59","77.7","75.3","92.2","29.94","355","1.5","4","0.02","0.00"
"14:09:57","77.9","75.2","91.5","29.94","355","1.5","5","0.02","0.00"
"14:14:59","78.1","75.3","91.2","29.95","355","0.2","2.3","0.02","0.00"
"14:19:56","78.4","75.5","91","29.95","355","0","0","0.02","0.00"
"14:24:58","78.5","75.3","90","29.95","355","0","0","0.02","0.00"
"14:29:59","78.7","75.4","89.7","29.95","355","0","0","0.02","0.00"
"14:34:57","78.8","75.3","89","29.94","355","0","0","0.02","0.00"
"14:39:57","79.2","75.9","89.7","29.94","355","1.2","4","0.02","0.00"
"14:44:56","79.4","75.6","88.1","29.94","355","2.2","5","0.02","0.00"
"14:49:59","79.6","75.7","87.8","29.94","355","0.9","4.6","0.02","0.00"
"14:54:57","80","76.1","87.8","29.94","2","0.2","1.2","0.02","0.00"
"14:59:56","80.9","77.6","89.9","29.94","5","0.7","4","0.02","0.00"
"15:04:58","81.8","77.7","87.5","29.93","5","0.7","3.5","0.02","0.00"
"15:09:58","82.3","77.1","84.3","29.93","5","0.3","2.3","0.02","0.00"
"15:14:58","82.7","77.8","85.2","29.93","28","0.6","3.5","0.02","0.00"
"15:19:57","83.3","78","84.2","29.92","52","1.3","3.5","0.02","0.00"
"15:24:59","83.7","77.7","82.2","29.92","124","1.3","4","0.02","0.00"
"15:29:57","83.6","77.2","81.3","29.93","137","0.1","3.5","0.02","0.00"
"15:34:56","83.4","77.3","82","29.93","136","0.8","3.5","0.02","0.00"
"15:39:56","83.1","77.3","82.8","29.93","136","0.3","2.3","0.03","0.01"
"15:44:58","82.9","77.2","83","29.93","136","0.2","1.2","0.03","0.01"
"15:49:57","82.9","77.1","82.8","29.93","40","0.7","4","0.03","0.01"
"15:54:59","82.8","77","82.7","29.93","40","0.2","1.2","0.03","0.01"
"15:59:58","82.8","76.9","82.3","29.93","40","0.5","2.3","0.03","0.01"
"16:04:56","82.7","76.9","82.7","29.92","38","1.2","4","0.03","0.01"
"16:09:59","82.7","77.1","83.2","29.92","34","0.8","5","0.03","0.01"
"16:14:59","82.6","76.8","82.8","29.92","326","1.5","4.6","0.03","0.01"
"16:19:57","82.4","76.6","82.7","29.92","294","1","2.3","0.03","0.01"
"16:24:56","82.3","77","83.8","29.92","294","0.4","2.3","0.03","0.01"
"16:29:58","82.4","76.6","82.8","29.92","254","0.7","2.3","0.03","0.01"
"16:34:57","82.5","76.4","82","29.92","331","1.3","5","0.03","0.01"
"16:39:57","82.5","76.6","82.3","29.92","330","1","3.5","0.03","0.01"
"16:44:59","82.6","76.4","81.8","29.92","330","0.6","3.5","0.03","0.00"
"16:49:58","82.6","76.7","82.4","29.92","330","1.8","4","0.03","0.00"
"16:54:56","82.5","76.5","82.4","29.92","330","1.8","4","0.03","0.00"
"16:59:59","82.3","76.4","82.4","29.92","325","2.4","5","0.03","0.00"
"17:04:57","82.2","76.6","83.3","29.92","321","1.2","4.6","0.03","0.00"
"17:09:56","82.2","77","84.2","29.92","322","1","4","0.03","0.00"
"17:14:56","82.3","77","84","29.92","327","1.4","6","0.03","0.00"
"17:19:58","82.3","76.7","83.3","29.92","341","2.8","9.2","0.03","0.00"
"17:24:57","81.5","75.6","82.4","29.92","340","3.5","11","0.03","0.00"
"17:29:59","80.5","74.9","83","29.93","345","4.2","12","0.03","0.00"
"17:34:58","79.6","74.3","84.1","29.93","335","2.6","7","0.03","0.00"
"17:39:58","78.9","74","85","29.93","334","2.5","10","0.03","0.00"
"17:44:59","78.3","73.5","85.3","29.93","333","3.5","10.4","0.03","0.00"
"17:49:56","77.8","73.3","85.8","29.93","334","2.7","9.2","0.03","0.00"
"17:54:58","77.3","72.8","86","29.93","342","2.7","8.1","0.03","0.00"
"17:59:59","76.9","72.7","86.9","29.93","347","1","4","0.03","0.00"
"18:04:56","76.7","72.6","87.4","29.93","346","0.9","4","0.03","0.00"
"18:09:58","76.5","72.7","88","29.93","345","0.8","3.5","0.03","0.00"
"18:14:56","76.3","72.5","88","29.93","338","1.4","6","0.03","0.00"
"18:19:58","76.3","72.8","89","29.92","351","1.1","6","0.03","0.00"
"18:24:59","76.3","72.8","89","29.92","336","1.8","5.8","0.03","0.00"
"18:29:56","76.3","72.8","89","29.92","343","2.4","13","0.03","0.00"
"18:34:58","76.3","72.8","89","29.92","338","2.4","6","0.03","0.00"
"18:39:57","76.3","72.8","89","29.92","325","1.8","4","0.03","0.00"
"18:44:58","76.2","72.7","88.8","29.92","336","1.2","6","0.03","0.00"
"18:49:59","76","72.5","88.8","29.92","331","0.4","2.3","0.03","0.00"
"18:54:56","75.9","72.4","89","29.92","333","1","3.5","0.03","0.00"
"18:59:58","75.8","72.4","89.1","29.93","336","1.4","5","0.03","0.00"
"19:04:58","75.7","72.6","90","29.93","331","1.9","6","0.03","0.00"
"19:09:56","75.7","72.7","90.4","29.93","336","0.6","3.5","0.03","0.00"
"19:14:59","75.5","72.7","91","29.93","336","1.4","4","0.03","0.00"
"19:19:57","75.2","72.4","91","29.93","330","0.4","3.5","0.04","0.01"
"19:24:58","74.9","72.1","91","29.93","327","1.1","4","0.04","0.01"
"19:29:59","74.5","71.7","91.1","29.93","327","0","0","0.04","0.01"
"19:34:56","74.2","71.7","92","29.93","327","0","1","0.04","0.01"
"19:39:59","74","71.6","92.3","29.93","327","0","1.2","0.04","0.01"
"19:44:56","73.8","71.5","92.6","29.94","327","0","0","0.04","0.01"
"19:49:58","73.7","71.5","93","29.94","327","0","0","0.04","0.01"
"19:54:59","73.5","71.6","93.5","29.94","327","0.8","2.3","0.04","0.01"
"19:59:56","73.5","71.7","94","29.94","327","0","1.2","0.04","0.01"
"20:04:57","73.4","71.6","94","29.94","327","0","0","0.04","0.01"
"20:09:59","73.3","71.5","94","29.94","327","0","1.2","0.04","0.01"
"20:14:58","73.3","71.5","94","29.94","327","0.1","1.2","0.04","0.01"
"20:19:56","73.3","71.6","94.4","29.94","327","0","0","0.04","0.01"
"20:24:58","73.3","71.7","94.6","29.94","327","0","0","0.04","0.00"
"20:29:59","73.3","71.8","94.9","29.94","327","0","1.2","0.04","0.00"
"20:34:57","73.3","71.7","94.8","29.94","327","0.3","1.2","0.04","0.00"
"20:39:56","73.2","71.7","95","29.94","327","0.5","2.3","0.04","0.00"
"20:44:58","73.2","71.7","95","29.95","327","0.8","2.3","0.04","0.00"
"20:49:59","73.2","71.7","95","29.95","327","0","1.2","0.04","0.00"
"20:54:57","73.2","71.7","95","29.95","327","0.3","2.3","0.04","0.00"
"20:59:58","73.2","72","95.8","29.96","327","1.4","3.5","0.04","0.00"
"21:04:59","73.2","71.8","95.4","29.96","327","0.8","3.5","0.04","0.00"
"21:09:57","73.2","71.7","95","29.96","327","0.1","2","0.04","0.00"
"21:14:56","73","71.5","95","29.97","327","0.4","2.3","0.04","0.00"
"21:19:58","72.9","71.4","95","29.97","327","0.8","3.5","0.04","0.00"
"21:24:56","72.8","71.3","95","29.97","327","0.7","2.3","0.04","0.00"
"21:29:57","72.8","71.3","95","29.98","327","1.3","3","0.04","0.00"
"21:34:59","72.8","71.3","95","29.98","327","1.2","3.5","0.04","0.00"
"21:39:58","72.6","71.1","95","29.98","329","1.5","5","0.04","0.00"
"21:44:56","72.6","71.1","95","29.98","331","0.7","3.5","0.04","0.00"
"21:49:58","72.5","71","95","29.98","329","1","3.5","0.04","0.00"
"21:54:59","72.5","71","95","29.98","329","0","1.2","0.04","0.00"
"21:59:57","72.5","71","95","29.99","328","0.5","1.2","0.04","0.00"
"22:04:58","72.4","70.9","95","29.99","328","0.1","1.2","0.04","0.00"
"22:09:56","72.4","71.2","95.9","29.99","328","0.2","1.2","0.04","0.00"
"22:14:59","72.4","71.2","96","29.99","326","0.5","2.3","0.04","0.00"
"22:19:57","72.5","71.3","96","29.99","309","1.3","9.2","0.04","0.00"
"22:24:58","72.5","71.3","96","29.99","322","0.8","4","0.05","0.01"
"22:29:59","72.4","71.2","95.7","29.99","329","0.3","2.3","0.05","0.01"
"22:34:57","72.3","70.8","95","29.99","329","0","1.2","0.05","0.01"
"22:39:56","72.2","70.7","95","29.99","329","0.2","1.2","0.06","0.02"
"22:44:57","72.2","70.8","95.3","29.99","329","0.1","1.2","0.06","0.02"
"22:49:58","72.1","70.8","95.7","29.99","329","0","0","0.06","0.02"
"22:54:56","72.1","70.9","96","29.99","329","0","0","0.06","0.02"
"22:59:57","72","70.8","96","29.99","329","0","0","0.06","0.02"
"23:04:58","72","70.8","96","29.98","329","0","0","0.06","0.02"
"23:09:56","71.9","70.7","96","29.98","329","0","0","0.06","0.02"
"23:14:59","71.8","70.6","96","29.98","329","0","0","0.06","0.02"
"23:19:57","71.8","70.6","96","29.98","329","0","0","0.06","0.02"
"23:24:59","71.8","70.6","96","29.98","329","0.2","2","0.06","0.02"
"23:29:56","71.7","70.5","96","29.98","329","0.9","3.5","0.06","0.01"
"23:34:58","71.7","70.7","96.7","29.98","328","1","3.5","0.06","0.01"
"23:39:57","71.6","70.4","96","29.98","328","0.5","2.3","0.06","0.01"
"23:44:58","71.5","70.3","96","30.00","325","0.1","3","0.06","0.00"
"23:49:56","71.4","70.2","96","30.00","325","0.3","3.5","0.06","0.00"
"23:54:57","71.2","70","96","30.00","325","0.5","2.3","0.06","0.00"
"23:59:59","71","69.8","96","30.00","325","0.1","1.2","0.06","0.00"
